Location: Carimao
(10.4546°N, 66.7419°W)
Time: 07:58:08
(UTC+00:00)

Cosmos 2100 Rocket - Pass Details

Date: 19 May 2024
Orbit: 954 x 1001 km, 82.9° (Epoch: 22 June)

Event Time Altitude Azimuth Distance (km) Brightness Sun altitude
Rises 23:03:34 0° 360° (N) 3,626 7.3 -5.6°
Reaches altitude 10° 23:06:04 10° 2° (N) 2,678 6.6 -6.2°
Maximum altitude 23:12:10 72° 87° (E) 998 3.9 -7.6°
Drops below altitude 10° 23:18:15 10° 170° (S) 2,678 6.0 -9.0°
Sets 23:20:45 0° 172° (S) 3,627 6.7 -9.6°
